Location: Fiennes
(50.8274°N, 1.8253°E)
Time: 23:20:18
(UTC+00:00)

CZ-2C R/B - Pass Details

Date: 15 May 2026
Orbit: 330 x 342 km, 97.7° (Epoch: 11 June)

Event Time Altitude Azimuth Distance (km) Brightness Sun altitude
Exits shadow 21:54:24 28° 217° (SW) 660 3.0 -15.7°
Maximum altitude 21:55:16 37° 260° (W) 535 2.9 -15.8°
Drops below altitude 10° 21:57:49 10° 331° (NNW) 1,276 6.1 -16.0°
Sets 21:59:48 0° 340° (NNW) 2,121 7.6 -16.1°
